Tracking 19212 objects as of 16-Jul-2018
HD Live streaming from Space Station
objects crossing your sky now

FALCON 9 R/B

Track FALCON 9 R/B now!


NORAD ID: 40426
Int'l Code: 2015-010C
Perigee: 732.1 km
Apogee: 62,673.7 km
Inclination: 23.1 °
Period: 1,232.3 minutes
Semi major axis: 38073 km
RCS: Unknown
Launch date: March 2, 2015
Source: United States (US)
Launch site: AIR FORCE EASTERN TEST RANGE (AFETR)

Note: This is a ROCKET BODY
aabbcc
Your satellite tracking list
Your tracking list is empty




NASA's NSSDC Master Catalog

Two Line Element Set (TLE):
1 40426U 15010C   18196.35832485 -.00000137 +00000-0 +64435-4 0  9994
2 40426 023.1129 191.6847 8134402 177.9473 191.7739 01.16858964014350
Source of the keplerian elements: AFSPC